Regional Weather Roundup
Issued by NWS

Home | Current Version | Previous Version | Text Only | Print | Product List | Glossary On
Versions: 1 2 3 4 5 6 7 8 9 10 11 12 13 14 15 16 17 18 19 20 21 22 23 24 25 26 27 28 29 30 31 32 33 34 35 36 37 38 39 40 41 42 43 44 45 46 47 48 49 50
000
ASUS43 KTOP 170508
RWRKS

WEATHER ROUNDUP FOR KANSAS
NATIONAL WEATHER SERVICE GOODLAND KS
1100 PM CST TUE JAN 16 2018

NOTE:  "FAIR" INDICATES FEW OR NO CLOUDS BELOW 12,000 FEET WITH NO
SIGNIFICANT WEATHER AND/OR OBSTRUCTIONS TO VISIBILITY.

KSZ001>006-013>018-027>032-041>047-170600-
NORTHWEST KANSAS

CITY           SKY/WX    TMP DP  RH WIND       PRES   REMARKS
GOODLAND       CLEAR     12  -2  53 S15       30.37F WCI  -4
HAYS           CLOUDY     2  -2  83 S7        30.60F
HILL CITY      CLOUDY     6  -1  73 CALM      30.56S
RUSSELL        CLOUDY     1  -3  83 S7        30.60F
$$

KSZ061>065-074>080-084>089-170600-
SOUTHWEST KANSAS

CITY           SKY/WX    TMP DP  RH WIND       PRES   REMARKS
DODGE CITY     CLOUDY     4  -6  63 S7        30.55S
ELKHART        CLEAR     11   0  60 S12       30.45F WCI  -3
GARDEN CITY    CLOUDY     5  -7  57 S9        30.50F
GREAT BEND     CLOUDY    -2  -7  79 S3        30.63F
LIBERAL        CLOUDY     5  -7  57 S7        30.54F
PRATT          PTCLDY     7   0  73 CALM      30.63F
$$

KSZ066>073-081>083-090>101-170600-
SOUTHEAST KANSAS

CITY           SKY/WX    TMP DP  RH WIND       PRES   REMARKS
CHANUTE        CLOUDY     5   0  79 NW5       30.73S
COFFEYVILLE    CLOUDY     1  -2  87 CALM      30.77S
HUTCHINSON     CLOUDY     1  -3  83 CALM      30.66F
MEDICINE LODGE   N/A      6   1  80 CALM      30.67S
NEWTON         CLOUDY     4   0  83 W3        30.67F
PARSONS        CLOUDY    -1  -5  82 CALM      30.76R
WICHITA INTL   CLOUDY     5   1  83 CALM      30.69S
WICHITA JABRA  CLOUDY     6   4  91 CALM      30.68S
WICHITA MCCONL CLOUDY     8   2  77 CALM      30.68S
WINFIELD       CLOUDY     4   0  83 CALM      30.73S
$$

KSZ007>012-019>026-033>040-048>060-102>105-170600-
NORTHEAST KANSAS

CITY           SKY/WX    TMP DP  RH WIND       PRES   REMARKS
CONCORDIA      CLOUDY     7   1  76 S3        30.64F
EMPORIA        CLOUDY     4  -1  80 W5        30.70S
LAWRENCE       CLOUDY    -4  -9  79 CALM      30.72S
MANHATTAN      CLOUDY     0  -4  83 CALM      30.70F
MARYSVILLE     CLOUDY     0  -4  85 CALM      30.66F
OLATHE IND     CLOUDY     0  -3  87 S3        30.70F
OLATHE EXE     CLOUDY     1  -2  87 CALM      30.69S
SALINA         CLOUDY     4   0  83 S5        30.68F
TOPEKA BILLARD CLOUDY     1  -3  83 CALM      30.72S
TOPEKA FORBES  CLOUDY     0  -4  83 W6        30.69F
$$




USA.gov is the U.S. government's official web portal to all federal, state and local government web resources and services.